Location: Shenandoah County Park
(38.9356°N, 78.4524°W)
Time: 06:41:39
(UTC-04:00)

Vanguard 1 Rocket - Pass Details

Date: 09 February 2023
Orbit: 652 x 4223 km, 34.3° (Epoch: 26 March)

Event Time Altitude Azimuth Distance (km) Brightness Sun altitude
Rises 15:00:33 0° 277° (W) 5,050 11.7 25.7°
Reaches altitude 10° 15:03:15 10° 273° (W) 4,401 11.5 25.4°
Maximum altitude 15:16:16 63° 197° (SSW) 3,251 11.0 23.6°
Drops below altitude 10° 15:39:38 10° 123° (ESE) 7,323 11.9 20.3°
Sets 15:45:50 0° 121° (ESE) 8,458 12.1 19.4°
